Location: *
(12.5665°N, 8.3471°E)
Time: 20:42:03
(UTC+00:00)

Hubble Space Telescope - Pass Details

Date: 23 September 2019
Orbit: 536 x 540 km, 28.5° (Epoch: 16 October)

Event Time Altitude Azimuth Distance (km) Brightness Sun altitude
Exits shadow 04:06:38 16° 328° (NNW) 1,424 2.7 -17.7°
Maximum altitude 04:09:13 31° 22° (NNE) 950 2.3 -17.1°
Drops below altitude 10° 04:12:54 10° 86° (E) 1,777 4.8 -16.2°
Sets 04:15:20 0° 96° (E) 2,668 6.1 -15.6°
